Time,TemperatureF,DewpointF,PressureIn,WindDirection,WindDirectionDegrees,WindSpeedMPH,WindSpeedGustMPH,Humidity,HourlyPrecipIn,Conditions,Clouds,dailyrainin,SolarRadiationWatts/m^2,SoftwareType,DateUTC
2013-07-27 00:00:00,84.7,69.3,29.59,SSE,156,0.0,0.0,60,0.00,,SKC,0.00,0.00,VWS V14.01,2013-07-27 05:00:00,
2013-07-27 00:02:00,84.7,69.3,29.58,SSE,156,0.0,0.0,60,0.00,,SKC,0.00,0.00,VWS V14.00,2013-07-27 05:02:00,
2013-07-27 00:07:00,84.4,69.5,29.59,SSE,156,0.0,2.0,61,0.00,,SKC,0.00,0.00,VWS V14.00,2013-07-27 05:07:00,
2013-07-27 00:10:00,84.2,69.3,29.58,SSE,156,0.0,2.0,61,0.00,,SKC,0.00,0.00,VWS V14.01,2013-07-27 05:10:00,
2013-07-27 00:12:00,84.2,69.3,29.58,SSE,156,0.0,0.0,61,0.00,,SKC,0.00,0.00,VWS V14.00,2013-07-27 05:12:00,
2013-07-27 00:17:00,83.9,69.5,29.59,SSE,156,0.0,1.0,62,0.00,,SKC,0.00,0.00,VWS V14.00,2013-07-27 05:17:00,
2013-07-27 00:20:00,83.7,69.3,29.59,SSE,156,0.0,1.0,62,0.00,,SKC,0.00,0.00,VWS V14.01,2013-07-27 05:20:00,
2013-07-27 00:22:00,83.7,69.3,29.59,SSE,156,0.0,0.0,62,0.00,,SKC,0.00,0.00,VWS V14.00,2013-07-27 05:22:00,
2013-07-27 00:27:00,83.6,69.7,29.59,SSE,156,0.0,0.0,63,0.00,,SKC,0.00,0.00,VWS V14.00,2013-07-27 05:27:00,
2013-07-27 00:30:00,83.4,69.5,29.60,SSE,156,0.0,0.0,63,0.00,,SKC,0.00,0.00,VWS V14.01,2013-07-27 05:30:00,
2013-07-27 00:32:00,83.4,69.5,29.60,SSE,156,0.0,0.0,63,0.00,,SKC,0.00,0.00,VWS V14.00,2013-07-27 05:32:00,
2013-07-27 00:37:00,83.2,69.8,29.61,SSE,156,0.0,1.0,64,0.00,,SKC,0.00,0.00,VWS V14.00,2013-07-27 05:37:00,
2013-07-27 00:40:00,83.1,69.7,29.61,SSE,156,0.0,1.0,64,0.00,,SKC,0.00,0.00,VWS V14.01,2013-07-27 05:40:00,
2013-07-27 00:42:00,83.0,69.6,29.61,SSE,156,0.0,0.0,64,0.00,,SKC,0.00,0.00,VWS V14.00,2013-07-27 05:42:00,
2013-07-27 00:47:00,82.9,69.5,29.61,SSE,156,0.0,4.0,64,0.00,,SKC,0.00,0.00,VWS V14.00,2013-07-27 05:47:00,
2013-07-27 00:50:00,82.7,69.8,29.62,SSE,156,0.0,6.0,65,0.00,,SKC,0.00,0.00,VWS V14.01,2013-07-27 05:50:00,
2013-07-27 00:52:00,82.7,69.8,29.62,SSE,156,2.0,2.0,65,0.00,,SKC,0.00,0.00,VWS V14.00,2013-07-27 05:52:00,
2013-07-27 00:57:00,82.6,69.7,29.62,SSE,156,0.0,5.0,65,0.00,,SKC,0.00,0.00,VWS V14.00,2013-07-27 05:57:00,
2013-07-27 01:00:00,82.5,69.6,29.62,SSE,156,0.0,5.0,65,0.00,,SKC,0.00,0.00,VWS V14.01,2013-07-27 06:00:00,
2013-07-27 01:02:00,82.5,69.6,29.62,SSE,156,1.0,1.0,65,0.00,,SKC,0.00,0.00,VWS V14.00,2013-07-27 06:02:00,
2013-07-27 01:07:00,82.5,69.6,29.62,SSE,156,0.0,1.0,65,0.00,,SKC,0.00,0.00,VWS V14.00,2013-07-27 06:07:00,
2013-07-27 01:10:00,82.4,69.5,29.62,SSE,156,0.0,1.0,65,0.00,,SKC,0.00,0.00,VWS V14.01,2013-07-27 06:10:00,
2013-07-27 01:12:00,82.4,69.5,29.62,SSE,156,1.0,1.0,65,0.00,,SKC,0.00,0.00,VWS V14.00,2013-07-27 06:12:00,
2013-07-27 01:17:00,82.4,69.9,29.62,SSE,156,1.0,7.0,66,0.00,,SKC,0.00,0.00,VWS V14.00,2013-07-27 06:17:00,
2013-07-27 01:20:00,82.3,69.8,29.62,SSE,156,0.0,7.0,66,0.00,,SKC,0.00,0.00,VWS V14.01,2013-07-27 06:20:00,
2013-07-27 01:22:00,82.3,69.8,29.62,SSE,156,1.0,1.0,66,0.00,,SKC,0.00,0.00,VWS V14.00,2013-07-27 06:22:00,
2013-07-27 01:27:00,82.3,69.8,29.62,SSE,156,0.0,4.0,66,0.00,,SKC,0.00,0.00,VWS V14.00,2013-07-27 06:27:00,
2013-07-27 01:30:00,82.2,69.7,29.62,SSE,156,0.0,4.0,66,0.00,,SKC,0.00,0.00,VWS V14.01,2013-07-27 06:30:00,
2013-07-27 01:32:00,82.2,69.7,29.62,SSE,156,0.0,0.0,66,0.00,,SKC,0.00,0.00,VWS V14.00,2013-07-27 06:32:00,
2013-07-27 01:37:00,82.0,69.5,29.61,SSE,156,0.0,4.0,66,0.00,,SKC,0.00,0.00,VWS V14.00,2013-07-27 06:37:00,
2013-07-27 01:40:00,81.9,69.4,29.61,SSE,156,0.0,4.0,66,0.00,,SKC,0.00,0.00,VWS V14.01,2013-07-27 06:40:00,
2013-07-27 01:42:00,81.9,69.4,29.61,SSE,156,0.0,0.0,66,0.00,,SKC,0.00,0.00,VWS V14.00,2013-07-27 06:42:00,
2013-07-27 01:47:00,81.8,69.3,29.61,SSE,156,0.0,0.0,66,0.00,,SKC,0.00,0.00,VWS V14.00,2013-07-27 06:47:00,
2013-07-27 01:50:00,81.6,69.6,29.61,SSE,156,0.0,1.0,67,0.00,,SKC,0.00,0.00,VWS V14.01,2013-07-27 06:50:00,
2013-07-27 01:52:00,81.6,69.6,29.61,SSE,156,0.0,0.0,67,0.00,,SKC,0.00,0.00,VWS V14.00,2013-07-27 06:52:00,
2013-07-27 01:57:00,81.5,69.5,29.60,SSE,156,0.0,0.0,67,0.00,,SKC,0.00,0.00,VWS V14.00,2013-07-27 06:57:00,
2013-07-27 02:00:00,81.4,69.4,29.60,SSE,156,0.0,0.0,67,0.00,,SKC,0.00,0.00,VWS V14.01,2013-07-27 07:00:00,
2013-07-27 02:02:00,81.4,69.4,29.60,SSE,156,0.0,0.0,67,0.00,,SKC,0.00,0.00,VWS V14.00,2013-07-27 07:02:00,
2013-07-27 02:07:00,81.2,69.2,29.60,SSE,156,0.0,2.0,67,0.00,,SKC,0.00,0.00,VWS V14.00,2013-07-27 07:07:00,
2013-07-27 02:10:00,81.0,69.4,29.60,SSE,156,0.0,2.0,68,0.00,,SKC,0.00,0.00,VWS V14.01,2013-07-27 07:10:00,
2013-07-27 02:12:00,81.0,69.4,29.60,SSE,156,0.0,0.0,68,0.00,,SKC,0.00,0.00,VWS V14.00,2013-07-27 07:12:00,
2013-07-27 02:17:00,80.8,69.3,29.60,SSE,156,0.0,1.0,68,0.00,,SKC,0.00,0.00,VWS V14.00,2013-07-27 07:17:00,
2013-07-27 02:20:00,80.6,69.1,29.60,SSE,156,0.0,1.0,68,0.00,,SKC,0.00,0.00,VWS V14.01,2013-07-27 07:20:00,
2013-07-27 02:22:00,80.6,69.5,29.60,SSE,156,0.0,0.0,69,0.00,,SKC,0.00,0.00,VWS V14.00,2013-07-27 07:22:00,
2013-07-27 02:27:00,80.5,69.4,29.61,SSE,156,0.0,0.0,69,0.00,,SKC,0.00,0.00,VWS V14.00,2013-07-27 07:27:00,
2013-07-27 02:30:00,80.3,69.2,29.61,SSE,156,0.0,1.0,69,0.00,,SKC,0.00,0.00,VWS V14.01,2013-07-27 07:30:00,
2013-07-27 02:32:00,80.3,69.2,29.61,SSE,156,0.0,0.0,69,0.00,,SKC,0.00,0.00,VWS V14.00,2013-07-27 07:32:00,
2013-07-27 02:37:00,80.1,69.0,29.61,SSE,156,0.0,0.0,69,0.00,,SKC,0.00,0.00,VWS V14.00,2013-07-27 07:37:00,
2013-07-27 02:40:00,80.0,69.3,29.61,SSE,156,0.0,0.0,70,0.00,,SKC,0.00,0.00,VWS V14.01,2013-07-27 07:40:00,
2013-07-27 02:42:00,79.9,69.2,29.61,SSE,156,0.0,0.0,70,0.00,,SKC,0.00,0.00,VWS V14.00,2013-07-27 07:42:00,
2013-07-27 02:47:00,79.9,69.2,29.61,SSE,156,0.0,1.0,70,0.00,,SKC,0.00,0.00,VWS V14.00,2013-07-27 07:47:00,
2013-07-27 02:50:00,79.8,69.2,29.61,SSE,156,0.0,1.0,70,0.00,,SKC,0.00,0.00,VWS V14.01,2013-07-27 07:50:00,
2013-07-27 02:52:00,79.8,69.2,29.61,SSE,156,0.0,0.0,70,0.00,,SKC,0.00,0.00,VWS V14.00,2013-07-27 07:52:00,
2013-07-27 02:57:00,79.8,69.2,29.61,SSE,156,0.0,0.0,70,0.00,,SKC,0.00,0.00,VWS V14.00,2013-07-27 07:57:00,
2013-07-27 03:00:00,79.8,69.2,29.61,SSE,156,0.0,0.0,70,0.00,,SKC,0.00,0.00,VWS V14.01,2013-07-27 08:00:00,
2013-07-27 03:02:00,79.8,69.6,29.61,SSE,156,0.0,0.0,71,0.00,,SKC,0.00,0.00,VWS V14.00,2013-07-27 08:02:00,
2013-07-27 03:07:00,79.8,69.6,29.61,SSE,156,0.0,0.0,71,0.00,,SKC,0.00,0.00,VWS V14.00,2013-07-27 08:07:00,
2013-07-27 03:10:00,79.8,69.6,29.60,SSE,156,0.0,0.0,71,0.00,,SKC,0.00,0.00,VWS V14.01,2013-07-27 08:10:00,
2013-07-27 03:12:00,79.8,69.6,29.60,SSE,156,0.0,0.0,71,0.00,,SKC,0.00,0.00,VWS V14.00,2013-07-27 08:12:00,
2013-07-27 03:17:00,79.7,69.5,29.60,SSE,156,0.0,0.0,71,0.00,,SKC,0.00,0.00,VWS V14.00,2013-07-27 08:17:00,
2013-07-27 03:20:00,79.7,69.5,29.60,SSE,156,0.0,0.0,71,0.00,,SKC,0.00,0.00,VWS V14.01,2013-07-27 08:20:00,
2013-07-27 03:22:00,79.7,69.5,29.59,SSE,156,0.0,0.0,71,0.00,,SKC,0.00,0.00,VWS V14.00,2013-07-27 08:22:00,
2013-07-27 03:27:00,79.6,69.4,29.59,SSE,156,0.0,0.0,71,0.00,,SKC,0.00,0.00,VWS V14.00,2013-07-27 08:27:00,
2013-07-27 03:30:00,79.5,69.3,29.59,SSE,156,0.0,0.0,71,0.00,,SKC,0.00,0.00,VWS V14.01,2013-07-27 08:30:00,
2013-07-27 03:32:00,79.5,69.3,29.59,SSE,156,0.0,0.0,71,0.00,,SKC,0.00,0.00,VWS V14.00,2013-07-27 08:32:00,
2013-07-27 03:37:00,79.4,69.2,29.59,SSE,156,0.0,4.0,71,0.00,,SKC,0.00,0.00,VWS V14.00,2013-07-27 08:37:00,
2013-07-27 03:40:00,79.3,69.1,29.59,SSE,156,0.0,4.0,71,0.00,,SKC,0.00,0.00,VWS V14.01,2013-07-27 08:40:00,
2013-07-27 03:42:00,79.3,69.1,29.59,SSE,156,0.0,0.0,71,0.00,,SKC,0.00,0.00,VWS V14.00,2013-07-27 08:42:00,
2013-07-27 03:47:00,79.1,68.9,29.59,SSE,156,0.0,5.0,71,0.00,,SKC,0.00,0.00,VWS V14.00,2013-07-27 08:47:00,
2013-07-27 03:50:00,78.9,69.1,29.59,SSE,156,1.0,5.0,72,0.00,,SKC,0.00,0.00,VWS V14.01,2013-07-27 08:50:00,
2013-07-27 03:52:00,78.9,69.1,29.59,SSE,156,1.0,2.0,72,0.00,,SKC,0.00,0.00,VWS V14.00,2013-07-27 08:52:00,
2013-07-27 03:57:00,78.7,68.9,29.59,SSE,156,1.0,5.0,72,0.00,,SKC,0.00,0.00,VWS V14.00,2013-07-27 08:57:00,
2013-07-27 04:00:00,78.6,69.2,29.58,SSE,156,2.0,5.0,73,0.00,,SKC,0.00,0.00,VWS V14.01,2013-07-27 09:00:00,
2013-07-27 04:02:00,78.5,69.1,29.58,SSE,156,6.0,6.0,73,0.00,,SKC,0.00,0.00,VWS V14.00,2013-07-27 09:02:00,
2013-07-27 04:07:00,78.4,69.0,29.58,SSE,156,0.0,6.0,73,0.00,,SKC,0.00,0.00,VWS V14.00,2013-07-27 09:07:00,
2013-07-27 04:10:00,78.3,68.9,29.58,SSE,156,0.0,6.0,73,0.00,,SKC,0.00,0.00,VWS V14.01,2013-07-27 09:10:00,
2013-07-27 04:12:00,78.2,68.8,29.58,SSE,156,0.0,0.0,73,0.00,,SKC,0.00,0.00,VWS V14.00,2013-07-27 09:12:00,
2013-07-27 04:17:00,78.1,68.8,29.57,SSE,156,0.0,2.0,73,0.00,,SKC,0.00,0.00,VWS V14.00,2013-07-27 09:17:00,
2013-07-27 04:20:00,78.0,69.1,29.57,SSE,156,0.0,2.0,74,0.00,,SKC,0.00,0.00,VWS V14.01,2013-07-27 09:20:00,
2013-07-27 04:22:00,78.0,69.1,29.58,SSE,156,0.0,0.0,74,0.00,,SKC,0.00,0.00,VWS V14.00,2013-07-27 09:22:00,
2013-07-27 04:27:00,77.8,68.9,29.57,SSE,156,0.0,2.0,74,0.00,,SKC,0.00,0.00,VWS V14.00,2013-07-27 09:27:00,
2013-07-27 04:30:00,77.6,68.7,29.57,SSE,156,0.0,2.0,74,0.00,,SKC,0.00,0.00,VWS V14.01,2013-07-27 09:30:00,
2013-07-27 04:32:00,77.6,68.7,29.57,SSE,156,0.0,0.0,74,0.00,,SKC,0.00,0.00,VWS V14.00,2013-07-27 09:32:00,
2013-07-27 04:37:00,77.5,69.0,29.57,SSE,156,0.0,1.0,75,0.00,,SKC,0.00,0.00,VWS V14.00,2013-07-27 09:37:00,
2013-07-27 04:40:00,77.3,68.8,29.57,SSE,156,0.0,2.0,75,0.00,,SKC,0.00,0.00,VWS V14.01,2013-07-27 09:40:00,
2013-07-27 04:42:00,77.3,68.8,29.57,SSE,156,1.0,2.0,75,0.00,,SKC,0.00,0.00,VWS V14.00,2013-07-27 09:42:00,
2013-07-27 04:47:00,77.2,68.7,29.57,SSE,156,1.0,4.0,75,0.00,,SKC,0.00,0.00,VWS V14.00,2013-07-27 09:47:00,
2013-07-27 04:50:00,77.0,68.5,29.57,SSE,156,2.0,6.0,75,0.00,,SKC,0.00,0.00,VWS V14.01,2013-07-27 09:50:00,
2013-07-27 04:52:00,77.0,68.5,29.57,SSE,156,0.0,4.0,75,0.00,,SKC,0.00,0.00,VWS V14.00,2013-07-27 09:52:00,
2013-07-27 04:57:00,76.9,68.4,29.57,SSE,156,0.0,5.0,75,0.00,,SKC,0.00,0.00,VWS V14.00,2013-07-27 09:57:00,
2013-07-27 05:00:00,76.8,68.3,29.57,SSE,156,1.0,5.0,75,0.00,,SKC,0.00,0.00,VWS V14.01,2013-07-27 10:00:00,
2013-07-27 05:02:00,76.8,68.3,29.57,SSE,156,1.0,1.0,75,0.00,,SKC,0.00,0.00,VWS V14.00,2013-07-27 10:02:00,
2013-07-27 05:07:00,76.8,68.3,29.57,SSE,156,1.0,5.0,75,0.00,,SKC,0.00,0.00,VWS V14.00,2013-07-27 10:07:00,
2013-07-27 05:10:00,76.8,68.3,29.57,SSE,156,1.0,5.0,75,0.00,,SKC,0.00,0.00,VWS V14.01,2013-07-27 10:10:00,
2013-07-27 05:12:00,76.8,68.3,29.57,SSE,156,0.0,1.0,75,0.00,,SKC,0.00,0.00,VWS V14.00,2013-07-27 10:12:00,
2013-07-27 05:17:00,76.8,68.3,29.58,SSE,156,1.0,1.0,75,0.00,,SKC,0.00,0.00,VWS V14.00,2013-07-27 10:17:00,
2013-07-27 05:20:00,76.9,68.4,29.58,SSE,156,0.0,4.0,75,0.00,,SKC,0.00,0.00,VWS V14.01,2013-07-27 10:20:00,
2013-07-27 05:22:00,76.9,68.4,29.58,SSE,156,2.0,2.0,75,0.00,,SKC,0.00,0.00,VWS V14.00,2013-07-27 10:22:00,
2013-07-27 05:27:00,76.9,68.0,29.58,SSE,156,2.0,5.0,74,0.00,,SKC,0.00,0.00,VWS V14.00,2013-07-27 10:27:00,
2013-07-27 05:30:00,76.9,68.0,29.58,SSE,156,0.0,5.0,74,0.00,,SKC,0.00,0.00,VWS V14.01,2013-07-27 10:30:00,
2013-07-27 05:32:00,77.0,68.1,29.58,SSE,156,0.0,0.0,74,0.00,,SKC,0.00,0.00,VWS V14.00,2013-07-27 10:32:00,
2013-07-27 05:37:00,77.0,68.1,29.58,SSE,156,2.0,5.0,74,0.00,,SKC,0.00,0.00,VWS V14.00,2013-07-27 10:37:00,
2013-07-27 05:40:00,76.9,68.0,29.58,SSE,156,0.0,6.0,74,0.00,,SKC,0.00,0.00,VWS V14.01,2013-07-27 10:40:00,
2013-07-27 05:42:00,77.0,68.1,29.58,SSE,156,4.0,5.0,74,0.00,,SKC,0.00,0.00,VWS V14.00,2013-07-27 10:42:00,
2013-07-27 05:47:00,76.9,68.0,29.58,SSE,156,0.0,5.0,74,0.00,,SKC,0.00,0.00,VWS V14.00,2013-07-27 10:47:00,
2013-07-27 05:50:00,76.9,68.0,29.59,SSE,156,1.0,5.0,74,0.00,,SKC,0.00,0.00,VWS V14.01,2013-07-27 10:50:00,
2013-07-27 05:52:00,76.9,68.0,29.59,SSE,156,0.0,2.0,74,0.00,,SKC,0.00,0.00,VWS V14.00,2013-07-27 10:52:00,
2013-07-27 05:57:00,76.8,67.9,29.60,SSE,156,0.0,2.0,74,0.00,,SKC,0.00,0.00,VWS V14.00,2013-07-27 10:57:00,
2013-07-27 06:00:00,76.7,67.8,29.60,SSE,156,2.0,5.0,74,0.00,,SKC,0.00,0.00,VWS V14.01,2013-07-27 11:00:00,
2013-07-27 06:02:00,76.7,67.8,29.59,SSE,156,1.0,4.0,74,0.00,,SKC,0.00,0.00,VWS V14.00,2013-07-27 11:02:00,
2013-07-27 06:07:00,76.6,68.1,29.59,SSE,156,0.0,4.0,75,0.00,,SKC,0.00,0.00,VWS V14.00,2013-07-27 11:07:00,
2013-07-27 06:10:00,76.6,68.1,29.59,SSE,156,0.0,4.0,75,0.00,,SKC,0.00,0.00,VWS V14.01,2013-07-27 11:10:00,
2013-07-27 06:12:00,76.6,68.1,29.60,SSE,156,0.0,0.0,75,0.00,,SKC,0.00,0.00,VWS V14.00,2013-07-27 11:12:00,
2013-07-27 06:17:00,76.5,68.0,29.60,SSE,156,0.0,4.0,75,0.00,,SKC,0.00,0.00,VWS V14.00,2013-07-27 11:17:00,
2013-07-27 06:20:00,76.4,67.9,29.60,SSE,156,0.0,4.0,75,0.00,,SKC,0.00,0.00,VWS V14.01,2013-07-27 11:20:00,
2013-07-27 06:22:00,76.4,67.9,29.60,SSE,156,0.0,0.0,75,0.00,,SKC,0.00,0.00,VWS V14.00,2013-07-27 11:22:00,
2013-07-27 06:27:00,76.4,67.9,29.61,SSE,156,0.0,5.0,75,0.00,,SKC,0.00,0.00,VWS V14.00,2013-07-27 11:27:00,
2013-07-27 06:30:00,76.3,68.2,29.61,SSE,156,0.0,5.0,76,0.00,,SKC,0.00,0.00,VWS V14.01,2013-07-27 11:30:00,
2013-07-27 06:32:00,76.4,68.3,29.61,SSE,156,2.0,2.0,76,0.00,,SKC,0.00,0.00,VWS V14.00,2013-07-27 11:32:00,
2013-07-27 06:37:00,76.3,68.2,29.60,SSE,156,0.0,5.0,76,0.00,,SKC,0.00,0.00,VWS V14.00,2013-07-27 11:37:00,
2013-07-27 06:40:00,76.2,68.1,29.60,SSE,156,0.0,5.0,76,0.00,,SKC,0.00,0.00,VWS V14.01,2013-07-27 11:40:00,
2013-07-27 06:42:00,76.2,68.1,29.60,SSE,156,0.0,0.0,76,0.00,,SKC,0.00,0.00,VWS V14.00,2013-07-27 11:42:00,
2013-07-27 06:47:00,76.1,68.0,29.61,SSE,156,0.0,4.0,76,0.00,,SKC,0.00,5.00,VWS V14.00,2013-07-27 11:47:00,
2013-07-27 06:50:00,76.0,67.9,29.61,SSE,156,1.0,5.0,76,0.00,,SKC,0.00,7.00,VWS V14.01,2013-07-27 11:50:00,
2013-07-27 06:52:00,76.0,67.9,29.61,SSE,156,2.0,5.0,76,0.00,,SKC,0.00,7.00,VWS V14.00,2013-07-27 11:52:00,
2013-07-27 06:57:00,75.8,67.7,29.61,SSE,156,1.0,5.0,76,0.00,,SKC,0.00,9.00,VWS V14.00,2013-07-27 11:57:00,
2013-07-27 07:00:00,75.7,67.6,29.61,SSE,156,0.0,5.0,76,0.00,,SKC,0.00,14.00,VWS V14.01,2013-07-27 12:00:00,
2013-07-27 07:02:00,75.7,67.6,29.61,SSE,156,0.0,0.0,76,0.00,,SKC,0.00,16.00,VWS V14.00,2013-07-27 12:02:00,
2013-07-27 07:07:00,75.5,67.8,29.61,SSE,156,2.0,5.0,77,0.00,,SKC,0.00,21.00,VWS V14.00,2013-07-27 12:07:00,
2013-07-27 07:10:00,75.3,67.6,29.61,SSE,156,4.0,8.0,77,0.00,,SKC,0.00,25.00,VWS V14.01,2013-07-27 12:10:00,
2013-07-27 07:12:00,75.3,67.6,29.61,SSE,156,4.0,6.0,77,0.00,,SKC,0.00,25.00,VWS V14.00,2013-07-27 12:12:00,
2013-07-27 07:17:00,75.1,67.8,29.60,SSE,156,0.0,6.0,78,0.00,,SKC,0.00,28.00,VWS V14.00,2013-07-27 12:17:00,
2013-07-27 07:20:00,74.9,67.6,29.61,SSE,156,1.0,6.0,78,0.00,,SKC,0.00,32.00,VWS V14.01,2013-07-27 12:20:00,
2013-07-27 07:22:00,74.9,67.6,29.60,SSE,156,1.0,4.0,78,0.00,,SKC,0.00,32.00,VWS V14.00,2013-07-27 12:22:00,
2013-07-27 07:27:00,74.8,67.9,29.61,SSE,156,2.0,6.0,79,0.00,,SKC,0.00,35.00,VWS V14.00,2013-07-27 12:27:00,
2013-07-27 07:30:00,74.7,67.8,29.61,SSE,156,6.0,6.0,79,0.00,,SKC,0.00,37.00,VWS V14.01,2013-07-27 12:30:00,
2013-07-27 07:32:00,74.7,67.8,29.61,SSE,156,2.0,5.0,79,0.00,,SKC,0.00,37.00,VWS V14.00,2013-07-27 12:32:00,
2013-07-27 07:37:00,74.6,68.0,29.61,SSE,156,2.0,5.0,80,0.00,,SKC,0.00,39.00,VWS V14.00,2013-07-27 12:37:00,
2013-07-27 07:40:00,74.5,67.9,29.61,SSE,156,0.0,6.0,80,0.00,,SKC,0.00,40.00,VWS V14.01,2013-07-27 12:40:00,
2013-07-27 07:42:00,74.5,67.9,29.61,SSE,156,1.0,2.0,80,0.00,,SKC,0.00,40.00,VWS V14.00,2013-07-27 12:42:00,
2013-07-27 07:47:00,74.5,67.9,29.61,SSE,156,2.0,5.0,80,0.00,,SKC,0.00,44.00,VWS V14.00,2013-07-27 12:47:00,
2013-07-27 07:50:00,74.5,67.9,29.61,SSE,156,1.0,6.0,80,0.00,,SKC,0.00,53.00,VWS V14.01,2013-07-27 12:50:00,
2013-07-27 07:52:00,74.5,67.9,29.61,SSE,156,5.0,7.0,80,0.00,,SKC,0.00,51.00,VWS V14.00,2013-07-27 12:52:00,
2013-07-27 07:57:00,74.5,67.9,29.62,SSE,156,1.0,7.0,80,0.00,,SKC,0.00,62.00,VWS V14.00,2013-07-27 12:57:00,
2013-07-27 08:00:00,74.5,68.3,29.62,SSE,156,2.0,7.0,81,0.00,,SKC,0.00,74.00,VWS V14.01,2013-07-27 13:00:00,
2013-07-27 08:02:00,74.5,68.3,29.62,SSE,156,6.0,6.0,81,0.00,,SKC,0.00,83.00,VWS V14.00,2013-07-27 13:02:00,
2013-07-27 08:07:00,74.6,68.4,29.62,SSE,156,2.0,7.0,81,0.00,,SKC,0.00,88.00,VWS V14.00,2013-07-27 13:07:00,
2013-07-27 08:10:00,74.7,68.5,29.62,SSE,156,4.0,7.0,81,0.00,,SKC,0.00,74.00,VWS V14.01,2013-07-27 13:10:00,
2013-07-27 08:12:00,74.7,68.1,29.62,SSE,156,6.0,6.0,80,0.00,,SKC,0.00,74.00,VWS V14.00,2013-07-27 13:12:00,
2013-07-27 08:17:00,74.8,68.2,29.62,SSE,156,4.0,6.0,80,0.00,,SKC,0.00,153.00,VWS V14.00,2013-07-27 13:17:00,
2013-07-27 08:20:00,74.9,68.3,29.61,SSE,156,1.0,6.0,80,0.00,,SKC,0.00,97.00,VWS V14.01,2013-07-27 13:20:00,
2013-07-27 08:22:00,74.9,68.3,29.62,SSE,156,2.0,4.0,80,0.00,,SKC,0.00,269.00,VWS V14.00,2013-07-27 13:22:00,
2013-07-27 08:27:00,75.1,68.5,29.62,SSE,156,5.0,7.0,80,0.00,,SKC,0.00,264.00,VWS V14.00,2013-07-27 13:27:00,
2013-07-27 08:30:00,75.2,68.6,29.61,SSE,156,0.0,7.0,80,0.00,,SKC,0.00,264.00,VWS V14.01,2013-07-27 13:30:00,
2013-07-27 08:32:00,75.2,68.6,29.62,SSE,156,1.0,5.0,80,0.00,,SKC,0.00,84.00,VWS V14.00,2013-07-27 13:32:00,
2013-07-27 08:37:00,75.3,68.7,29.62,SSE,156,2.0,5.0,80,0.00,,SKC,0.00,322.00,VWS V14.00,2013-07-27 13:37:00,
2013-07-27 08:40:00,75.6,69.0,29.62,SSE,156,1.0,5.0,80,0.00,,SKC,0.00,223.00,VWS V14.01,2013-07-27 13:40:00,
2013-07-27 08:42:00,75.7,69.1,29.62,SSE,156,4.0,6.0,80,0.00,,SKC,0.00,213.00,VWS V14.00,2013-07-27 13:42:00,
2013-07-27 08:47:00,75.9,68.9,29.62,SSE,156,2.0,6.0,79,0.00,,SKC,0.00,359.00,VWS V14.00,2013-07-27 13:47:00,
2013-07-27 08:50:00,76.1,68.8,29.63,SSE,156,8.0,8.0,78,0.00,,SKC,0.00,329.00,VWS V14.01,2013-07-27 13:50:00,
2013-07-27 08:52:00,76.2,69.2,29.62,SSE,156,6.0,10.0,79,0.00,,SKC,0.00,329.00,VWS V14.00,2013-07-27 13:52:00,
2013-07-27 08:57:00,76.3,68.9,29.63,SSE,156,2.0,10.0,78,0.00,,SKC,0.00,158.00,VWS V14.00,2013-07-27 13:57:00,
2013-07-27 09:00:00,76.4,69.0,29.63,SSE,156,2.0,10.0,78,0.00,,SKC,0.00,244.00,VWS V14.01,2013-07-27 14:00:00,
2013-07-27 09:02:00,76.4,69.0,29.63,SSE,156,0.0,1.0,78,0.00,,SKC,0.00,135.00,VWS V14.00,2013-07-27 14:02:00,
2013-07-27 09:07:00,76.6,68.9,29.63,SSE,156,1.0,6.0,77,0.00,,SKC,0.00,172.00,VWS V14.00,2013-07-27 14:07:00,
2013-07-27 09:10:00,76.6,68.9,29.63,SSE,156,1.0,6.0,77,0.00,,SKC,0.00,185.00,VWS V14.01,2013-07-27 14:10:00,
2013-07-27 09:12:00,76.6,68.9,29.63,SSE,156,1.0,4.0,77,0.00,,SKC,0.00,178.00,VWS V14.00,2013-07-27 14:12:00,
2013-07-27 09:17:00,76.7,68.9,29.63,SSE,156,2.0,5.0,77,0.00,,SKC,0.00,165.00,VWS V14.00,2013-07-27 14:17:00,
2013-07-27 09:20:00,76.8,69.1,29.63,SSE,156,1.0,6.0,77,0.00,,SKC,0.00,169.00,VWS V14.01,2013-07-27 14:20:00,
2013-07-27 09:22:00,76.8,69.1,29.63,SSE,156,4.0,5.0,77,0.00,,SKC,0.00,169.00,VWS V14.00,2013-07-27 14:22:00,
2013-07-27 09:27:00,77.0,69.2,29.63,SSE,156,2.0,6.0,77,0.00,,SKC,0.00,188.00,VWS V14.00,2013-07-27 14:27:00,
2013-07-27 09:30:00,77.0,69.2,29.63,SSE,156,2.0,8.0,77,0.00,,SKC,0.00,202.00,VWS V14.01,2013-07-27 14:30:00,
2013-07-27 09:32:00,77.0,69.2,29.64,SSE,156,2.0,5.0,77,0.00,,SKC,0.00,204.00,VWS V14.00,2013-07-27 14:32:00,
2013-07-27 09:37:00,77.0,68.9,29.64,SSE,156,4.0,8.0,76,0.00,,SKC,0.00,206.00,VWS V14.00,2013-07-27 14:37:00,
2013-07-27 09:40:00,77.0,69.2,29.64,SSE,156,4.0,8.0,77,0.00,,SKC,0.00,213.00,VWS V14.01,2013-07-27 14:40:00,
2013-07-27 09:42:00,77.0,69.2,29.64,SSE,156,0.0,4.0,77,0.00,,SKC,0.00,213.00,VWS V14.00,2013-07-27 14:42:00,
2013-07-27 09:47:00,77.1,69.3,29.64,SSE,156,0.0,6.0,77,0.00,,SKC,0.00,172.00,VWS V14.00,2013-07-27 14:47:00,
2013-07-27 09:50:00,77.2,69.1,29.64,SSE,156,5.0,6.0,76,0.00,,SKC,0.00,202.00,VWS V14.01,2013-07-27 14:50:00,
2013-07-27 09:52:00,77.2,69.1,29.64,SSE,156,5.0,5.0,76,0.00,,SKC,0.00,193.00,VWS V14.00,2013-07-27 14:52:00,
2013-07-27 09:57:00,77.2,69.1,29.63,SSE,156,4.0,8.0,76,0.00,,SKC,0.00,255.00,VWS V14.00,2013-07-27 14:57:00,
2013-07-27 10:00:00,77.2,69.1,29.64,SSE,156,6.0,8.0,76,0.00,,SKC,0.00,253.00,VWS V14.01,2013-07-27 15:00:00,
2013-07-27 10:02:00,77.2,69.1,29.64,SSE,156,0.0,5.0,76,0.00,,SKC,0.00,223.00,VWS V14.00,2013-07-27 15:02:00,
2013-07-27 10:07:00,77.5,69.3,29.63,SSE,156,6.0,6.0,76,0.00,,SKC,0.00,306.00,VWS V14.00,2013-07-27 15:07:00,
2013-07-27 10:10:00,77.6,69.4,29.63,SSE,156,5.0,6.0,76,0.00,,SKC,0.00,258.00,VWS V14.01,2013-07-27 15:10:00,
2013-07-27 10:12:00,77.6,69.4,29.64,SSE,156,2.0,5.0,76,0.00,,SKC,0.00,260.00,VWS V14.00,2013-07-27 15:12:00,
2013-07-27 10:17:00,77.7,69.5,29.64,SSE,156,4.0,8.0,76,0.00,,SKC,0.00,323.00,VWS V14.00,2013-07-27 15:17:00,
2013-07-27 10:20:00,77.8,69.6,29.63,SSE,156,4.0,8.0,76,0.00,,SKC,0.00,281.00,VWS V14.01,2013-07-27 15:20:00,
2013-07-27 10:22:00,77.8,69.2,29.63,SSE,156,1.0,6.0,75,0.00,,SKC,0.00,281.00,VWS V14.00,2013-07-27 15:22:00,
2013-07-27 10:27:00,78.3,69.7,29.63,SSE,156,6.0,6.0,75,0.00,,SKC,0.00,629.00,VWS V14.00,2013-07-27 15:27:00,
2013-07-27 10:30:00,78.9,69.5,29.63,SSE,156,0.0,6.0,73,0.00,,SKC,0.00,629.00,VWS V14.01,2013-07-27 15:30:00,
2013-07-27 10:32:00,79.0,69.6,29.63,SSE,156,0.0,5.0,73,0.00,,SKC,0.00,629.00,VWS V14.00,2013-07-27 15:32:00,
2013-07-27 10:37:00,79.5,69.7,29.63,SSE,156,8.0,8.0,72,0.00,,SKC,0.00,267.00,VWS V14.00,2013-07-27 15:37:00,
2013-07-27 10:40:00,79.5,69.3,29.63,SSE,156,4.0,8.0,71,0.00,,SKC,0.00,360.00,VWS V14.01,2013-07-27 15:40:00,
2013-07-27 10:42:00,79.5,69.3,29.63,SSE,156,0.0,5.0,71,0.00,,SKC,0.00,299.00,VWS V14.00,2013-07-27 15:42:00,
2013-07-27 10:47:00,79.5,69.3,29.63,SSE,156,6.0,7.0,71,0.00,,SKC,0.00,735.00,VWS V14.00,2013-07-27 15:47:00,
2013-07-27 10:50:00,79.8,69.6,29.63,SSE,156,8.0,14.0,71,0.00,,SKC,0.00,269.00,VWS V14.01,2013-07-27 15:50:00,
2013-07-27 10:52:00,79.8,69.6,29.63,SSE,156,6.0,6.0,71,0.00,,SKC,0.00,267.00,VWS V14.00,2013-07-27 15:52:00,
2013-07-27 10:57:00,79.8,69.6,29.63,SSE,156,4.0,6.0,71,0.00,,SKC,0.00,243.00,VWS V14.00,2013-07-27 15:57:00,
2013-07-27 11:00:00,79.8,69.2,29.63,SSE,156,2.0,6.0,70,0.00,,SKC,0.00,234.00,VWS V14.01,2013-07-27 16:00:00,
2013-07-27 11:02:00,79.8,69.2,29.64,SSE,156,1.0,4.0,70,0.00,,SKC,0.00,253.00,VWS V14.00,2013-07-27 16:02:00,
2013-07-27 11:07:00,79.7,69.1,29.64,SSE,156,4.0,7.0,70,0.00,,SKC,0.00,380.00,VWS V14.00,2013-07-27 16:07:00,
2013-07-27 11:10:00,79.8,69.2,29.64,SSE,156,5.0,7.0,70,0.00,,SKC,0.00,366.00,VWS V14.01,2013-07-27 16:10:00,
2013-07-27 11:12:00,79.8,69.2,29.64,SSE,156,6.0,6.0,70,0.00,,SKC,0.00,415.00,VWS V14.00,2013-07-27 16:12:00,
2013-07-27 11:17:00,79.8,68.7,29.65,SSE,156,5.0,8.0,69,0.00,,SKC,0.00,434.00,VWS V14.00,2013-07-27 16:17:00,
2013-07-27 11:20:00,79.7,68.6,29.65,SSE,156,0.0,8.0,69,0.00,,SKC,0.00,466.00,VWS V14.01,2013-07-27 16:20:00,
2013-07-27 11:22:00,79.7,68.6,29.64,SSE,156,0.0,1.0,69,0.00,,SKC,0.00,529.00,VWS V14.00,2013-07-27 16:22:00,
2013-07-27 11:27:00,80.5,69.4,29.64,SSE,156,4.0,6.0,69,0.00,,SKC,0.00,761.00,VWS V14.00,2013-07-27 16:27:00,
2013-07-27 11:30:00,81.2,69.2,29.65,SSE,156,4.0,11.0,67,0.00,,SKC,0.00,991.00,VWS V14.01,2013-07-27 16:30:00,
2013-07-27 11:32:00,81.3,68.9,29.65,SSE,156,6.0,8.0,66,0.00,,SKC,0.00,991.00,VWS V14.00,2013-07-27 16:32:00,
2013-07-27 11:37:00,81.8,68.9,29.65,SSE,156,4.0,9.0,65,0.00,,SKC,0.00,791.00,VWS V14.00,2013-07-27 16:37:00,
2013-07-27 11:40:00,81.6,68.7,29.65,SSE,156,8.0,11.0,65,0.00,,SKC,0.00,490.00,VWS V14.01,2013-07-27 16:40:00,
2013-07-27 11:42:00,81.6,68.7,29.65,SSE,156,4.0,10.0,65,0.00,,SKC,0.00,490.00,VWS V14.00,2013-07-27 16:42:00,
2013-07-27 11:47:00,81.6,69.2,29.65,SSE,156,5.0,10.0,66,0.00,,SKC,0.00,659.00,VWS V14.00,2013-07-27 16:47:00,
2013-07-27 11:50:00,82.0,68.6,29.65,SSE,156,0.0,10.0,64,0.00,,SKC,0.00,613.00,VWS V14.01,2013-07-27 16:50:00,
2013-07-27 11:52:00,81.9,69.0,29.64,SSE,156,4.0,6.0,65,0.00,,SKC,0.00,613.00,VWS V14.00,2013-07-27 16:52:00,
2013-07-27 11:57:00,82.0,68.6,29.64,SSE,156,5.0,7.0,64,0.00,,SKC,0.00,510.00,VWS V14.00,2013-07-27 16:57:00,
2013-07-27 12:00:00,81.7,67.9,29.65,SSE,156,5.0,10.0,63,0.00,,SKC,0.00,406.00,VWS V14.01,2013-07-27 17:00:00,
2013-07-27 12:02:00,81.7,67.9,29.65,SSE,156,2.0,5.0,63,0.00,,SKC,0.00,410.00,VWS V14.00,2013-07-27 17:02:00,
2013-07-27 12:07:00,81.5,67.7,29.65,SSE,156,4.0,6.0,63,0.00,,SKC,0.00,374.00,VWS V14.00,2013-07-27 17:07:00,
2013-07-27 12:10:00,81.2,67.4,29.64,SSE,156,0.0,7.0,63,0.00,,SKC,0.00,462.00,VWS V14.01,2013-07-27 17:10:00,
2013-07-27 12:12:00,81.3,67.5,29.64,SSE,156,0.0,1.0,63,0.00,,SKC,0.00,462.00,VWS V14.00,2013-07-27 17:12:00,
2013-07-27 12:17:00,81.5,67.7,29.65,SSE,156,2.0,8.0,63,0.00,,SKC,0.00,422.00,VWS V14.00,2013-07-27 17:17:00,
2013-07-27 12:20:00,81.5,68.2,29.64,SSE,156,5.0,10.0,64,0.00,,SKC,0.00,492.00,VWS V14.01,2013-07-27 17:20:00,
2013-07-27 12:22:00,81.5,68.6,29.64,SSE,156,8.0,11.0,65,0.00,,SKC,0.00,492.00,VWS V14.00,2013-07-27 17:22:00,
2013-07-27 12:27:00,81.5,68.6,29.64,South,169,4.0,13.0,65,0.00,,SKC,0.00,490.00,VWS V14.00,2013-07-27 17:27:00,
2013-07-27 12:30:00,81.4,68.1,29.64,South,169,4.0,13.0,64,0.00,,SKC,0.00,455.00,VWS V14.01,2013-07-27 17:30:00,
2013-07-27 12:32:00,81.4,68.1,29.64,South,169,4.0,4.0,64,0.00,,SKC,0.00,438.00,VWS V14.00,2013-07-27 17:32:00,
2013-07-27 12:37:00,81.4,68.1,29.64,South,169,2.0,8.0,64,0.00,,SKC,0.00,432.00,VWS V14.00,2013-07-27 17:37:00,
2013-07-27 12:40:00,81.4,68.1,29.64,South,169,0.0,8.0,64,0.00,,SKC,0.00,434.00,VWS V14.01,2013-07-27 17:40:00,
2013-07-27 12:42:00,81.6,68.2,29.65,South,169,2.0,4.0,64,0.00,,SKC,0.00,434.00,VWS V14.00,2013-07-27 17:42:00,
2013-07-27 12:47:00,81.9,68.1,29.65,South,169,2.0,10.0,63,0.00,,SKC,0.00,469.00,VWS V14.00,2013-07-27 17:47:00,
2013-07-27 12:50:00,82.0,67.7,29.64,South,169,0.0,10.0,62,0.00,,SKC,0.00,668.00,VWS V14.01,2013-07-27 17:50:00,
2013-07-27 12:52:00,82.1,68.3,29.65,South,169,0.0,1.0,63,0.00,,SKC,0.00,396.00,VWS V14.00,2013-07-27 17:52:00,
2013-07-27 12:57:00,82.2,67.4,29.64,South,169,0.0,7.0,61,0.00,,SKC,0.00,374.00,VWS V14.00,2013-07-27 17:57:00,
2013-07-27 13:00:00,82.3,67.5,29.65,South,169,1.0,7.0,61,0.00,,SKC,0.00,371.00,VWS V14.01,2013-07-27 18:00:00,
2013-07-27 13:02:00,82.3,67.5,29.65,South,169,6.0,8.0,61,0.00,,SKC,0.00,410.00,VWS V14.00,2013-07-27 18:02:00,
2013-07-27 13:07:00,82.2,68.4,29.65,SSW,205,7.0,14.0,63,0.00,,SKC,0.00,575.00,VWS V14.00,2013-07-27 18:07:00,
2013-07-27 13:10:00,82.2,68.4,29.64,SSW,205,3.0,14.0,63,0.00,,SKC,0.00,538.00,VWS V14.01,2013-07-27 18:10:00,
2013-07-27 13:12:00,82.1,68.3,29.65,SSW,205,6.0,6.0,63,0.00,,SKC,0.00,550.00,VWS V14.00,2013-07-27 18:12:00,
2013-07-27 13:17:00,82.3,68.5,29.65,SSW,205,6.0,7.0,63,0.00,,SKC,0.00,606.00,VWS V14.00,2013-07-27 18:17:00,
2013-07-27 13:20:00,82.4,68.1,29.64,SSW,205,3.0,7.0,62,0.00,,SKC,0.00,510.00,VWS V14.01,2013-07-27 18:20:00,
2013-07-27 13:22:00,82.3,68.0,29.64,SSW,205,4.0,6.0,62,0.00,,SKC,0.00,510.00,VWS V14.00,2013-07-27 18:22:00,
2013-07-27 13:27:00,82.4,68.1,29.64,SSW,205,3.0,7.0,62,0.00,,SKC,0.00,617.00,VWS V14.00,2013-07-27 18:27:00,
2013-07-27 13:30:00,82.8,68.0,29.64,SSW,205,4.0,8.0,61,0.00,,SKC,0.00,559.00,VWS V14.01,2013-07-27 18:30:00,
2013-07-27 13:32:00,82.8,67.5,29.64,SSW,205,3.0,4.0,60,0.00,,SKC,0.00,559.00,VWS V14.00,2013-07-27 18:32:00,
2013-07-27 13:37:00,82.7,67.4,29.63,SSW,205,4.0,9.0,60,0.00,,SKC,0.00,394.00,VWS V14.00,2013-07-27 18:37:00,
2013-07-27 13:40:00,82.7,67.9,29.64,SSW,205,5.0,9.0,61,0.00,,SKC,0.00,555.00,VWS V14.01,2013-07-27 18:40:00,
2013-07-27 13:42:00,82.7,67.9,29.64,SSW,205,7.0,8.0,61,0.00,,SKC,0.00,555.00,VWS V14.00,2013-07-27 18:42:00,
2013-07-27 13:47:00,83.0,68.2,29.63,SSW,205,1.0,8.0,61,0.00,,SKC,0.00,527.00,VWS V14.00,2013-07-27 18:47:00,
2013-07-27 13:50:00,83.0,67.7,29.63,SSW,205,3.0,9.0,60,0.00,,SKC,0.00,334.00,VWS V14.01,2013-07-27 18:50:00,
2013-07-27 13:52:00,82.9,67.6,29.63,SSW,205,7.0,8.0,60,0.00,,SKC,0.00,334.00,VWS V14.00,2013-07-27 18:52:00,
2013-07-27 13:57:00,83.1,67.8,29.64,SSW,205,3.0,9.0,60,0.00,,SKC,0.00,1283.00,VWS V14.00,2013-07-27 18:57:00,
2013-07-27 14:00:00,83.6,67.8,29.63,SSW,205,4.0,9.0,59,0.00,,SKC,0.00,408.00,VWS V14.01,2013-07-27 19:00:00,
2013-07-27 14:02:00,83.7,67.9,29.63,SSW,205,5.0,7.0,59,0.00,,SKC,0.00,394.00,VWS V14.00,2013-07-27 19:02:00,
2013-07-27 14:07:00,83.9,67.6,29.63,SSW,205,4.0,9.0,58,0.00,,SKC,0.00,461.00,VWS V14.00,2013-07-27 19:07:00,
2013-07-27 14:10:00,84.0,67.7,29.63,SSW,205,5.0,10.0,58,0.00,,SKC,0.00,424.00,VWS V14.01,2013-07-27 19:10:00,
2013-07-27 14:12:00,84.1,67.7,29.62,SSW,205,5.0,6.0,58,0.00,,SKC,0.00,1032.00,VWS V14.00,2013-07-27 19:12:00,
2013-07-27 14:17:00,84.3,67.9,29.62,SSW,205,5.0,8.0,58,0.00,,SKC,0.00,448.00,VWS V14.00,2013-07-27 19:17:00,
2013-07-27 14:20:00,84.2,67.8,29.63,SSW,205,9.0,10.0,58,0.00,,SKC,0.00,1229.00,VWS V14.01,2013-07-27 19:20:00,
2013-07-27 14:22:00,84.2,67.8,29.62,SSW,205,6.0,10.0,58,0.00,,SKC,0.00,1229.00,VWS V14.00,2013-07-27 19:22:00,
2013-07-27 14:27:00,83.9,67.6,29.62,South,180,3.0,13.0,58,0.00,,SKC,0.00,1202.00,VWS V14.00,2013-07-27 19:27:00,
2013-07-27 14:30:00,84.4,67.5,29.62,South,180,3.0,13.0,57,0.00,,SKC,0.00,434.00,VWS V14.01,2013-07-27 19:30:00,
2013-07-27 14:32:00,84.5,67.6,29.62,South,180,4.0,6.0,57,0.00,,SKC,0.00,434.00,VWS V14.00,2013-07-27 19:32:00,
2013-07-27 14:37:00,84.9,67.5,29.62,South,180,3.0,9.0,56,0.00,,SKC,0.00,299.00,VWS V14.00,2013-07-27 19:37:00,
2013-07-27 14:40:00,85.2,67.8,29.62,South,180,6.0,9.0,56,0.00,,SKC,0.00,1160.00,VWS V14.01,2013-07-27 19:40:00,
2013-07-27 14:42:00,85.2,67.2,29.62,South,180,3.0,7.0,55,0.00,,SKC,0.00,1160.00,VWS V14.00,2013-07-27 19:42:00,
2013-07-27 14:47:00,85.5,67.5,29.62,South,180,8.0,10.0,55,0.00,,SKC,0.00,1049.00,VWS V14.00,2013-07-27 19:47:00,
2013-07-27 14:50:00,85.9,67.3,29.61,South,180,3.0,10.0,54,0.00,,SKC,0.00,327.00,VWS V14.01,2013-07-27 19:50:00,
2013-07-27 14:52:00,85.9,67.9,29.61,South,180,0.0,3.0,55,0.00,,SKC,0.00,327.00,VWS V14.00,2013-07-27 19:52:00,
2013-07-27 14:57:00,86.0,68.0,29.61,South,180,7.0,9.0,55,0.00,,SKC,0.00,1013.00,VWS V14.00,2013-07-27 19:57:00,
2013-07-27 15:00:00,86.1,67.5,29.61,South,180,4.0,9.0,54,0.00,,SKC,0.00,997.00,VWS V14.01,2013-07-27 20:00:00,
2013-07-27 15:02:00,86.2,67.6,29.61,South,180,5.0,5.0,54,0.00,,SKC,0.00,983.00,VWS V14.00,2013-07-27 20:02:00,
2013-07-27 15:07:00,86.8,67.6,29.61,South,180,4.0,8.0,53,0.00,,SKC,0.00,944.00,VWS V14.00,2013-07-27 20:07:00,
2013-07-27 15:10:00,87.6,67.2,29.61,South,181,6.0,8.0,51,0.00,,SKC,0.00,944.00,VWS V14.01,2013-07-27 20:10:00,
2013-07-27 15:12:00,87.7,67.3,29.61,South,181,3.0,6.0,51,0.00,,SKC,0.00,933.00,VWS V14.00,2013-07-27 20:12:00,
2013-07-27 15:17:00,87.9,67.5,29.60,South,183,1.0,9.0,51,0.00,,SKC,0.00,933.00,VWS V14.00,2013-07-27 20:17:00,
2013-07-27 15:20:00,87.9,67.5,29.60,South,182,0.0,9.0,51,0.00,,SKC,0.00,909.00,VWS V14.01,2013-07-27 20:20:00,
2013-07-27 15:22:00,88.0,68.2,29.60,South,182,2.0,3.0,52,0.00,,SKC,0.00,895.00,VWS V14.00,2013-07-27 20:22:00,
2013-07-27 15:27:00,88.2,67.2,29.60,South,182,4.0,8.0,50,0.00,,SKC,0.00,882.00,VWS V14.00,2013-07-27 20:27:00,
2013-07-27 15:30:00,87.6,67.2,29.60,South,173,2.0,14.0,51,0.00,,SKC,0.00,900.00,VWS V14.01,2013-07-27 20:30:00,
2013-07-27 15:32:00,87.5,67.2,29.60,South,173,4.0,5.0,51,0.00,,SKC,0.00,898.00,VWS V14.00,2013-07-27 20:32:00,
2013-07-27 15:37:00,87.5,67.2,29.60,South,173,7.0,12.0,51,0.00,,SKC,0.00,896.00,VWS V14.00,2013-07-27 20:37:00,
2013-07-27 15:40:00,87.4,67.6,29.59,South,173,4.0,12.0,52,0.00,,SKC,0.00,879.00,VWS V14.01,2013-07-27 20:40:00,
2013-07-27 15:42:00,87.4,67.6,29.59,South,173,10.0,11.0,52,0.00,,SKC,0.00,884.00,VWS V14.00,2013-07-27 20:42:00,
2013-07-27 15:47:00,87.5,67.7,29.60,South,171,0.0,11.0,52,0.00,,SKC,0.00,916.00,VWS V14.00,2013-07-27 20:47:00,
2013-07-27 15:50:00,87.6,67.2,29.59,South,171,7.0,11.0,51,0.00,,SKC,0.00,881.00,VWS V14.01,2013-07-27 20:50:00,
2013-07-27 15:52:00,87.7,67.3,29.59,South,169,7.0,15.0,51,0.00,,SKC,0.00,893.00,VWS V14.00,2013-07-27 20:52:00,
2013-07-27 15:57:00,88.1,67.1,29.59,South,169,8.0,15.0,50,0.00,,SKC,0.00,798.00,VWS V14.00,2013-07-27 20:57:00,
2013-07-27 16:00:00,88.1,67.7,29.59,South,169,5.0,15.0,51,0.00,,SKC,0.00,842.00,VWS V14.01,2013-07-27 21:00:00,
2013-07-27 16:02:00,88.2,67.2,29.59,South,169,0.0,5.0,50,0.00,,SKC,0.00,816.00,VWS V14.00,2013-07-27 21:02:00,
2013-07-27 16:07:00,88.7,67.1,29.59,SSE,162,4.0,14.0,49,0.00,,SKC,0.00,844.00,VWS V14.00,2013-07-27 21:07:00,
2013-07-27 16:10:00,89.3,67.1,29.59,SSE,162,5.0,14.0,48,0.00,,SKC,0.00,853.00,VWS V14.01,2013-07-27 21:10:00,
2013-07-27 16:12:00,89.4,67.1,29.59,SSE,162,5.0,6.0,48,0.00,,SKC,0.00,854.00,VWS V14.00,2013-07-27 21:12:00,
2013-07-27 16:17:00,90.0,67.1,29.58,SSE,162,5.0,10.0,47,0.00,,SKC,0.00,831.00,VWS V14.00,2013-07-27 21:17:00,
2013-07-27 16:20:00,90.2,67.3,29.58,SSE,162,7.0,10.0,47,0.00,,SKC,0.00,795.00,VWS V14.01,2013-07-27 21:20:00,
2013-07-27 16:22:00,90.2,66.6,29.58,SSE,162,7.0,8.0,46,0.00,,SKC,0.00,809.00,VWS V14.00,2013-07-27 21:22:00,
2013-07-27 16:27:00,90.3,66.7,29.58,SSE,162,0.0,9.0,46,0.00,,SKC,0.00,793.00,VWS V14.00,2013-07-27 21:27:00,
2013-07-27 16:30:00,90.6,67.0,29.58,SSE,162,0.0,11.0,46,0.00,,SKC,0.00,779.00,VWS V14.01,2013-07-27 21:30:00,
2013-07-27 16:32:00,90.6,67.0,29.58,SSE,162,5.0,5.0,46,0.00,,SKC,0.00,777.00,VWS V14.00,2013-07-27 21:32:00,
2013-07-27 16:37:00,90.6,66.4,29.58,SSE,162,2.0,8.0,45,0.00,,SKC,0.00,765.00,VWS V14.00,2013-07-27 21:37:00,
2013-07-27 16:40:00,90.7,66.5,29.57,SSE,162,2.0,8.0,45,0.00,,SKC,0.00,761.00,VWS V14.01,2013-07-27 21:40:00,
2013-07-27 16:42:00,90.8,66.6,29.57,SSE,162,6.0,6.0,45,0.00,,SKC,0.00,763.00,VWS V14.00,2013-07-27 21:42:00,
2013-07-27 16:47:00,90.3,64.8,29.57,SSE,161,7.0,12.0,43,0.00,,SKC,0.00,737.00,VWS V14.00,2013-07-27 21:47:00,
2013-07-27 16:50:00,90.1,65.3,29.57,SE,142,7.0,14.0,44,0.00,,SKC,0.00,735.00,VWS V14.01,2013-07-27 21:50:00,
2013-07-27 16:52:00,90.1,65.9,29.57,SE,142,4.0,7.0,45,0.00,,SKC,0.00,726.00,VWS V14.00,2013-07-27 21:52:00,
2013-07-27 16:57:00,89.9,65.1,29.56,SE,142,7.0,12.0,44,0.00,,SKC,0.00,705.00,VWS V14.00,2013-07-27 21:57:00,
2013-07-27 17:00:00,89.8,63.7,29.56,SE,142,7.0,12.0,42,0.00,,SKC,0.00,698.00,VWS V14.01,2013-07-27 22:00:00,
2013-07-27 17:02:00,89.8,63.7,29.56,SE,142,12.0,12.0,42,0.00,,SKC,0.00,694.00,VWS V14.00,2013-07-27 22:02:00,
2013-07-27 17:07:00,89.7,63.6,29.56,SE,142,6.0,13.0,42,0.00,,SKC,0.00,677.00,VWS V14.00,2013-07-27 22:07:00,
2013-07-27 17:10:00,89.6,63.5,29.56,SE,142,7.0,13.0,42,0.00,,SKC,0.00,666.00,VWS V14.01,2013-07-27 22:10:00,
2013-07-27 17:12:00,89.6,63.5,29.56,SE,142,5.0,12.0,42,0.00,,SKC,0.00,663.00,VWS V14.00,2013-07-27 22:12:00,
2013-07-27 17:17:00,89.5,63.4,29.56,SE,142,6.0,13.0,42,0.00,,SKC,0.00,647.00,VWS V14.00,2013-07-27 22:17:00,
2013-07-27 17:20:00,89.6,62.1,29.56,SE,142,11.0,13.0,40,0.00,,SKC,0.00,621.00,VWS V14.01,2013-07-27 22:20:00,
2013-07-27 17:22:00,89.6,61.4,29.56,SE,141,8.0,12.0,39,0.00,,SKC,0.00,621.00,VWS V14.00,2013-07-27 22:22:00,
2013-07-27 17:23:00,89.6,61.4,29.56,SE,141,6.0,12.0,39,0.00,,SKC,0.00,621.00,VWS V14.00,2013-07-27 22:23:00,
2013-07-27 17:28:00,89.6,61.4,29.56,SE,141,4.0,12.0,39,0.00,,SKC,0.00,619.00,VWS V14.00,2013-07-27 22:28:00,
2013-07-27 17:30:00,89.8,61.6,29.56,SE,141,8.0,18.0,39,0.00,,SKC,0.00,606.00,VWS V14.01,2013-07-27 22:30:00,
2013-07-27 17:33:00,89.8,60.8,29.56,SE,141,9.0,9.0,38,0.00,,SKC,0.00,601.00,VWS V14.00,2013-07-27 22:33:00,
2013-07-27 17:38:00,90.0,61.7,29.55,SE,141,5.0,11.0,39,0.00,,SKC,0.00,571.00,VWS V14.00,2013-07-27 22:38:00,
2013-07-27 17:40:00,89.9,61.7,29.55,SE,141,14.0,14.0,39,0.00,,SKC,0.00,561.00,VWS V14.01,2013-07-27 22:40:00,
2013-07-27 17:43:00,89.9,61.7,29.55,SE,141,2.0,13.0,39,0.00,,SKC,0.00,568.00,VWS V14.00,2013-07-27 22:43:00,
2013-07-27 17:48:00,89.8,63.7,29.56,SE,141,5.0,13.0,42,0.00,,SKC,0.00,555.00,VWS V14.00,2013-07-27 22:48:00,
2013-07-27 17:50:00,89.8,63.7,29.56,SE,141,5.0,13.0,42,0.00,,SKC,0.00,543.00,VWS V14.01,2013-07-27 22:50:00,
2013-07-27 17:53:00,89.8,63.7,29.55,SE,141,10.0,10.0,42,0.00,,SKC,0.00,541.00,VWS V14.00,2013-07-27 22:53:00,
2013-07-27 17:58:00,89.4,63.3,29.56,SE,140,4.0,13.0,42,0.00,,SKC,0.00,524.00,VWS V14.00,2013-07-27 22:58:00,
2013-07-27 18:00:00,89.2,63.1,29.55,SE,140,4.0,13.0,42,0.00,,SKC,0.00,499.00,VWS V14.01,2013-07-27 23:00:00,
2013-07-27 18:03:00,89.3,63.2,29.55,SE,140,8.0,10.0,42,0.00,,SKC,0.00,503.00,VWS V14.00,2013-07-27 23:03:00,
2013-07-27 18:08:00,89.2,63.1,29.56,SE,140,2.0,10.0,42,0.00,,SKC,0.00,485.00,VWS V14.00,2013-07-27 23:08:00,
2013-07-27 18:10:00,89.2,63.1,29.55,SE,140,6.0,12.0,42,0.00,,SKC,0.00,473.00,VWS V14.01,2013-07-27 23:10:00,
2013-07-27 18:13:00,89.1,62.4,29.55,SE,137,5.0,14.0,41,0.00,,SKC,0.00,466.00,VWS V14.00,2013-07-27 23:13:00,
2013-07-27 18:18:00,88.6,62.6,29.55,SE,127,4.0,17.0,42,0.00,,SKC,0.00,446.00,VWS V14.00,2013-07-27 23:18:00,
2013-07-27 18:20:00,88.6,62.6,29.55,SE,127,8.0,17.0,42,0.00,,SKC,0.00,434.00,VWS V14.01,2013-07-27 23:20:00,
2013-07-27 18:23:00,88.6,63.3,29.55,SE,127,8.0,9.0,43,0.00,,SKC,0.00,429.00,VWS V14.00,2013-07-27 23:23:00,
2013-07-27 18:28:00,88.5,62.5,29.55,SE,126,6.0,13.0,42,0.00,,SKC,0.00,413.00,VWS V14.00,2013-07-27 23:28:00,
2013-07-27 18:30:00,88.3,63.0,29.55,SE,127,7.0,13.0,43,0.00,,SKC,0.00,396.00,VWS V14.01,2013-07-27 23:30:00,
2013-07-27 18:33:00,88.3,63.7,29.55,SE,126,1.0,7.0,44,0.00,,SKC,0.00,392.00,VWS V14.00,2013-07-27 23:33:00,
2013-07-27 18:38:00,88.4,62.4,29.55,SE,126,0.0,11.0,42,0.00,,SKC,0.00,376.00,VWS V14.00,2013-07-27 23:38:00,
2013-07-27 18:40:00,88.4,63.1,29.56,SE,126,9.0,12.0,43,0.00,,SKC,0.00,364.00,VWS V14.01,2013-07-27 23:40:00,
2013-07-27 18:43:00,88.3,63.0,29.56,SE,126,2.0,9.0,43,0.00,,SKC,0.00,359.00,VWS V14.00,2013-07-27 23:43:00,
2013-07-27 18:48:00,88.2,62.2,29.56,SE,127,9.0,13.0,42,0.00,,SKC,0.00,339.00,VWS V14.00,2013-07-27 23:48:00,
2013-07-27 18:50:00,87.9,62.0,29.56,SE,127,5.0,13.0,42,0.00,,SKC,0.00,329.00,VWS V14.01,2013-07-27 23:50:00,
2013-07-27 18:53:00,87.8,61.9,29.55,SE,127,4.0,8.0,42,0.00,,SKC,0.00,322.00,VWS V14.00,2013-07-27 23:53:00,
2013-07-27 18:58:00,87.6,62.4,29.56,SE,126,4.0,14.0,43,0.00,,SKC,0.00,302.00,VWS V14.00,2013-07-27 23:58:00,
2013-07-27 19:00:00,87.5,62.3,29.56,SE,127,4.0,14.0,43,0.00,,SKC,0.00,290.00,VWS V14.01,2013-07-28 00:00:00,
2013-07-27 19:03:00,87.5,62.3,29.56,SE,127,1.0,6.0,43,0.00,,SKC,0.00,288.00,VWS V14.00,2013-07-28 00:03:00,
2013-07-27 19:08:00,87.4,61.5,29.56,SE,126,7.0,13.0,42,0.00,,SKC,0.00,269.00,VWS V14.00,2013-07-28 00:08:00,
2013-07-27 19:10:00,87.3,62.1,29.56,SE,127,5.0,13.0,43,0.00,,SKC,0.00,253.00,VWS V14.01,2013-07-28 00:10:00,
2013-07-27 19:13:00,87.3,62.1,29.56,SE,127,2.0,6.0,43,0.00,,SKC,0.00,251.00,VWS V14.00,2013-07-28 00:13:00,
2013-07-27 19:18:00,87.1,61.2,29.56,SE,127,6.0,12.0,42,0.00,,SKC,0.00,232.00,VWS V14.00,2013-07-28 00:18:00,
2013-07-27 19:20:00,86.9,61.1,29.56,SE,127,5.0,12.0,42,0.00,,SKC,0.00,218.00,VWS V14.01,2013-07-28 00:20:00,
2013-07-27 19:23:00,86.8,61.0,29.56,SE,126,6.0,11.0,42,0.00,,SKC,0.00,211.00,VWS V14.00,2013-07-28 00:23:00,
2013-07-27 19:28:00,86.6,61.5,29.56,SE,126,8.0,15.0,43,0.00,,SKC,0.00,190.00,VWS V14.00,2013-07-28 00:28:00,
2013-07-27 19:30:00,86.4,61.3,29.56,SE,126,9.0,15.0,43,0.00,,SKC,0.00,176.00,VWS V14.01,2013-07-28 00:30:00,
2013-07-27 19:33:00,86.3,61.2,29.56,SE,126,5.0,11.0,43,0.00,,SKC,0.00,167.00,VWS V14.00,2013-07-28 00:33:00,
2013-07-27 19:38:00,86.1,61.7,29.56,SE,127,5.0,11.0,44,0.00,,SKC,0.00,149.00,VWS V14.00,2013-07-28 00:38:00,
2013-07-27 19:40:00,86.0,61.6,29.56,SE,126,8.0,11.0,44,0.00,,SKC,0.00,132.00,VWS V14.01,2013-07-28 00:40:00,
2013-07-27 19:43:00,86.0,61.6,29.56,SE,127,8.0,9.0,44,0.00,,SKC,0.00,128.00,VWS V14.00,2013-07-28 00:43:00,
2013-07-27 19:48:00,85.7,61.9,29.56,SE,127,0.0,9.0,45,0.00,,SKC,0.00,107.00,VWS V14.00,2013-07-28 00:48:00,
2013-07-27 19:50:00,85.6,61.8,29.56,SE,126,4.0,9.0,45,0.00,,SKC,0.00,95.00,VWS V14.01,2013-07-28 00:50:00,
2013-07-27 19:53:00,85.5,61.8,29.56,SE,126,2.0,6.0,45,0.00,,SKC,0.00,88.00,VWS V14.00,2013-07-28 00:53:00,
2013-07-27 19:58:00,85.3,61.6,29.56,SE,126,6.0,11.0,45,0.00,,SKC,0.00,70.00,VWS V14.00,2013-07-28 00:58:00,
2013-07-27 20:00:00,85.0,61.9,29.56,SE,126,2.0,11.0,46,0.00,,SKC,0.00,60.00,VWS V14.01,2013-07-28 01:00:00,
2013-07-27 20:03:00,85.0,61.9,29.56,SE,126,5.0,8.0,46,0.00,,SKC,0.00,54.00,VWS V14.00,2013-07-28 01:03:00,
2013-07-27 20:08:00,84.7,61.7,29.57,SE,126,7.0,8.0,46,0.00,,SKC,0.00,42.00,VWS V14.00,2013-07-28 01:08:00,
2013-07-27 20:10:00,84.5,62.1,29.56,SE,126,6.0,9.0,47,0.00,,SKC,0.00,32.00,VWS V14.01,2013-07-28 01:10:00,
2013-07-27 20:13:00,84.4,62.0,29.57,SE,126,7.0,12.0,47,0.00,,SKC,0.00,30.00,VWS V14.00,2013-07-28 01:13:00,
2013-07-27 20:18:00,84.1,62.3,29.57,SE,126,2.0,12.0,48,0.00,,SKC,0.00,19.00,VWS V14.00,2013-07-28 01:18:00,
2013-07-27 20:20:00,83.9,62.7,29.57,SE,126,1.0,12.0,49,0.00,,SKC,0.00,12.00,VWS V14.01,2013-07-28 01:20:00,
2013-07-27 20:23:00,83.8,62.6,29.57,SE,127,6.0,7.0,49,0.00,,SKC,0.00,12.00,VWS V14.00,2013-07-28 01:23:00,
2013-07-27 20:28:00,83.4,62.8,29.58,SE,126,4.0,7.0,50,0.00,,SKC,0.00,7.00,VWS V14.00,2013-07-28 01:28:00,
2013-07-27 20:30:00,83.2,62.7,29.58,SE,126,0.0,7.0,50,0.00,,SKC,0.00,5.00,VWS V14.01,2013-07-28 01:30:00,
2013-07-27 20:33:00,83.2,63.2,29.58,SE,126,0.0,2.0,51,0.00,,SKC,0.00,5.00,VWS V14.00,2013-07-28 01:33:00,
2013-07-27 20:38:00,82.8,63.4,29.58,SE,126,2.0,5.0,52,0.00,,SKC,0.00,0.00,VWS V14.00,2013-07-28 01:38:00,
2013-07-27 20:40:00,82.5,63.1,29.58,SE,126,4.0,5.0,52,0.00,,SKC,0.00,0.00,VWS V14.01,2013-07-28 01:40:00,
2013-07-27 20:43:00,82.4,63.6,29.58,SE,126,4.0,6.0,53,0.00,,SKC,0.00,0.00,VWS V14.00,2013-07-28 01:43:00,
2013-07-27 20:48:00,82.0,63.7,29.58,SE,126,7.0,7.0,54,0.00,,SKC,0.00,0.00,VWS V14.00,2013-07-28 01:48:00,
2013-07-27 20:50:00,81.7,64.0,29.58,SE,126,1.0,7.0,55,0.00,,SKC,0.00,0.00,VWS V14.01,2013-07-28 01:50:00,
2013-07-27 20:53:00,81.6,63.9,29.58,SE,126,0.0,4.0,55,0.00,,SKC,0.00,0.00,VWS V14.00,2013-07-28 01:53:00,
2013-07-27 20:58:00,81.3,64.6,29.58,SE,126,1.0,6.0,57,0.00,,SKC,0.00,0.00,VWS V14.00,2013-07-28 01:58:00,
2013-07-27 21:00:00,81.1,64.9,29.58,SE,126,0.0,6.0,58,0.00,,SKC,0.00,0.00,VWS V14.01,2013-07-28 02:00:00,
2013-07-27 21:03:00,81.0,64.8,29.59,SE,126,0.0,1.0,58,0.00,,SKC,0.00,0.00,VWS V14.00,2013-07-28 02:03:00,
2013-07-27 21:08:00,80.7,65.1,29.59,SE,126,0.0,5.0,59,0.00,,SKC,0.00,0.00,VWS V14.00,2013-07-28 02:08:00,
2013-07-27 21:10:00,80.6,65.0,29.59,SE,126,1.0,5.0,59,0.00,,SKC,0.00,0.00,VWS V14.01,2013-07-28 02:10:00,
2013-07-27 21:13:00,80.5,64.9,29.59,SE,126,2.0,5.0,59,0.00,,SKC,0.00,0.00,VWS V14.00,2013-07-28 02:13:00,
2013-07-27 21:18:00,80.2,65.1,29.60,SE,126,2.0,5.0,60,0.00,,SKC,0.00,0.00,VWS V14.00,2013-07-28 02:18:00,
2013-07-27 21:20:00,80.0,65.4,29.60,SE,126,0.0,5.0,61,0.00,,SKC,0.00,0.00,VWS V14.01,2013-07-28 02:20:00,
2013-07-27 21:23:00,80.0,65.4,29.60,SE,126,4.0,5.0,61,0.00,,SKC,0.00,0.00,VWS V14.00,2013-07-28 02:23:00,
2013-07-27 21:28:00,79.7,65.1,29.60,SE,127,1.0,6.0,61,0.00,,SKC,0.00,0.00,VWS V14.00,2013-07-28 02:28:00,
2013-07-27 21:30:00,79.6,65.4,29.60,SE,126,4.0,6.0,62,0.00,,SKC,0.00,0.00,VWS V14.01,2013-07-28 02:30:00,
2013-07-27 21:33:00,79.5,65.3,29.60,SE,126,1.0,1.0,62,0.00,,SKC,0.00,0.00,VWS V14.00,2013-07-28 02:33:00,
2013-07-27 21:38:00,79.3,65.6,29.60,SE,126,0.0,2.0,63,0.00,,SKC,0.00,0.00,VWS V14.00,2013-07-28 02:38:00,
2013-07-27 21:40:00,79.1,65.4,29.60,SE,126,0.0,6.0,63,0.00,,SKC,0.00,0.00,VWS V14.01,2013-07-28 02:40:00,
2013-07-27 21:43:00,79.0,65.3,29.60,SE,126,2.0,4.0,63,0.00,,SKC,0.00,0.00,VWS V14.00,2013-07-28 02:43:00,
2013-07-27 21:48:00,78.8,65.6,29.61,SE,126,2.0,5.0,64,0.00,,SKC,0.00,0.00,VWS V14.00,2013-07-28 02:48:00,
2013-07-27 21:50:00,78.7,65.5,29.61,SE,126,0.0,5.0,64,0.00,,SKC,0.00,0.00,VWS V14.01,2013-07-28 02:50:00,
2013-07-27 21:53:00,78.6,65.4,29.61,SE,126,6.0,6.0,64,0.00,,SKC,0.00,0.00,VWS V14.00,2013-07-28 02:53:00,
2013-07-27 21:58:00,78.5,65.8,29.61,SE,126,1.0,6.0,65,0.00,,SKC,0.00,0.00,VWS V14.00,2013-07-28 02:58:00,
2013-07-27 22:00:00,78.3,65.6,29.61,SE,126,0.0,6.0,65,0.00,,SKC,0.00,0.00,VWS V14.01,2013-07-28 03:00:00,
2013-07-27 22:03:00,78.3,65.6,29.61,SE,126,0.0,1.0,65,0.00,,SKC,0.00,0.00,VWS V14.00,2013-07-28 03:03:00,
2013-07-27 22:08:00,78.1,65.4,29.61,SE,126,0.0,2.0,65,0.00,,SKC,0.00,0.00,VWS V14.00,2013-07-28 03:08:00,
2013-07-27 22:10:00,78.0,65.7,29.61,SE,126,2.0,5.0,66,0.00,,SKC,0.00,0.00,VWS V14.01,2013-07-28 03:10:00,
2013-07-27 22:13:00,77.9,65.6,29.61,SE,126,2.0,5.0,66,0.00,,SKC,0.00,0.00,VWS V14.00,2013-07-28 03:13:00,
2013-07-27 22:18:00,77.8,65.5,29.61,SE,126,4.0,6.0,66,0.00,,SKC,0.00,0.00,VWS V14.00,2013-07-28 03:18:00,
2013-07-27 22:20:00,77.7,65.9,29.62,SE,126,0.0,6.0,67,0.00,,SKC,0.00,0.00,VWS V14.01,2013-07-28 03:20:00,
2013-07-27 22:23:00,77.6,65.8,29.62,SE,126,0.0,1.0,67,0.00,,SKC,0.00,0.00,VWS V14.00,2013-07-28 03:23:00,
2013-07-27 22:28:00,77.5,65.7,29.62,SE,126,0.0,2.0,67,0.00,,SKC,0.00,0.00,VWS V14.00,2013-07-28 03:28:00,
2013-07-27 22:30:00,77.4,65.6,29.62,SE,126,0.0,2.0,67,0.00,,SKC,0.00,0.00,VWS V14.01,2013-07-28 03:30:00,
2013-07-27 22:33:00,77.3,65.5,29.62,SE,126,0.0,0.0,67,0.00,,SKC,0.00,0.00,VWS V14.00,2013-07-28 03:33:00,
2013-07-27 22:38:00,77.0,65.6,29.62,SE,126,0.0,1.0,68,0.00,,SKC,0.00,0.00,VWS V14.00,2013-07-28 03:38:00,
2013-07-27 22:40:00,76.8,65.4,29.62,SE,126,0.0,4.0,68,0.00,,SKC,0.00,0.00,VWS V14.01,2013-07-28 03:40:00,
2013-07-27 22:43:00,76.7,65.8,29.62,SE,126,2.0,2.0,69,0.00,,SKC,0.00,0.00,VWS V14.00,2013-07-28 03:43:00,
2013-07-27 22:48:00,76.6,65.7,29.62,SE,126,0.0,2.0,69,0.00,,SKC,0.00,0.00,VWS V14.00,2013-07-28 03:48:00,
2013-07-27 22:50:00,76.4,65.5,29.62,SE,126,0.0,2.0,69,0.00,,SKC,0.00,0.00,VWS V14.01,2013-07-28 03:50:00,
2013-07-27 22:53:00,76.4,65.5,29.62,SE,126,0.0,0.0,69,0.00,,SKC,0.00,0.00,VWS V14.00,2013-07-28 03:53:00,
2013-07-27 22:58:00,76.1,65.6,29.62,SE,126,0.0,1.0,70,0.00,,SKC,0.00,0.00,VWS V14.00,2013-07-28 03:58:00,
2013-07-27 23:00:00,75.7,65.2,29.62,SE,135,0.0,2.0,70,0.00,,SKC,0.00,0.00,VWS V14.00,2013-07-28 04:00:00,
2013-07-27 23:10:00,75.3,65.7,29.62,SE,135,2.0,5.0,72,0.00,,SKC,0.00,0.00,VWS V14.00,2013-07-28 04:10:00,
2013-07-27 23:20:00,75.1,65.9,29.63,SE,135,2.0,5.0,73,0.00,,SKC,0.00,0.00,VWS V14.00,2013-07-28 04:20:00,
2013-07-27 23:30:00,74.8,66.0,29.62,SE,135,3.0,8.0,74,0.00,,SKC,0.00,0.00,VWS V14.00,2013-07-28 04:30:00,
2013-07-27 23:40:00,74.6,66.2,29.61,SE,135,3.0,7.0,75,0.00,,SKC,0.00,0.00,VWS V14.00,2013-07-28 04:40:00,
2013-07-27 23:50:00,74.4,66.0,29.61,SE,135,3.0,9.0,75,0.00,,SKC,0.00,0.00,VWS V14.00,2013-07-28 04:50:00,